Probability
0 1 3 4 5 6 5 3 2 1 0 1 2 3 3 3 3 3 3 3 3 3 3 4 4 4 3 3 4 5 6 5 4 3 2 1 2 2 1 0 0 0 0
1 2 3 4 5 5 4 2 1 0 1 3 4 4 3 3 3 3 3 3 3 3 3 4 5 4 3 3 4 5 5 4 3 3 2 2 1 1 0 0 0 1 1
1 2 3 4 5 4 2 1 0 1 2 4 4 4 3 3 3 3 3 3 3 3 3 4 4 4 4 4 5 5 4 3 2 1 2 2 1 1 1 1 1 2 2
0 1 3 4 4 3 1 1 1 2 3 3 4 3 3 3 3 3 3 3 3 4 4 4 3 4 3 4 5 5 4 3 2 1 2 3 3 2 2 2 3 3 3
0 1 2 3 3 2 2 1 2 3 4 3 3 3 3 2 1 2 2 2 3 3 4 4 4 4 4 4 4 3 2 3 2 2 2 2 3 3 3 3 3 3 3
0 1 2 3 4 3 2 2 4 5 4 4 3 3 2 1 1 1 1 1 1 3 5 5 5 5 5 5 3 2 2 3 3 2 1 1 1 3 3 2 2 3 2
0 0 2 4 5 4 2 3 5 6 5 4 3 3 1 1 0 0 0 0 1 3 4 5 4 4 3 3 2 2 2 3 3 2 1 0 1 3 3 2 2 1 1
0 0 2 5 6 5 3 4 5 6 5 4 3 2 1 0 0 0 0 0 1 2 3 3 3 2 1 1 1 1 1 2 2 1 0 0 1 3 3 2 1 0 0
0 0 2 4 5 5 4 5 6 5 4 3 2 1 0 0 1 1 0 0 1 1 1 2 1 1 0 0 1 1 1 1 1 0 0 1 2 3 3 2 1 0 0
0 0 0 1 2 3 4 5 6 5 4 3 2 1 0 0 1 1 0 0 0 0 0 0 1 1 1 1 2 2 2 1 0 0 0 1 4 3 2 1 0 0 0
0 0 0 0 1 2 3 4 5 4 4 4 3 2 1 1 1 1 0 0 0 0 0 0 1 2 2 2 3 3 2 1 0 0 0 2 4 4 3 2 1 1 1
0 0 0 0 0 1 3 4 4 4 4 4 4 3 3 2 2 1 0 0 0 0 0 0 1 2 2 3 3 3 3 1 1 1 1 4 4 4 3 3 3 3 3
0 0 0 0 1 2 4 5 6 5 4 3 4 5 4 4 3 1 0 0 0 0 0 0 0 1 1 3 3 3 3 3 2 2 3 5 5 4 3 3 3 4 5
0 0 1 1 2 4 6 6 6 6 5 4 5 6 5 4 4 2 1 0 0 0 0 0 0 0 1 2 2 3 3 3 3 4 6 6 6 5 4 3 4 5 5
0 1 2 3 4 6 6 6 6 6 4 5 5 6 5 4 3 2 1 1 0 0 0 1 1 1 1 1 1 1 2 2 3 4 6 6 6 6 5 4 4 4 5
1 2 3 4 5 7 6 6 6 6 5 4 5 5 4 3 1 2 2 1 0 0 0 0 0 0 0 0 0 0 1 1 1 3 4 5 5 6 6 5 4 4 4
1 2 3 3 5 7 6 5 5 5 4 4 4 4 3 2 1 1 2 1 0 0 0 0 0 0 0 0 0 0 0 0 1 2 3 3 3 4 6 7 6 5 4
1 3 3 4 5 6 5 3 3 4 4 4 3 3 2 2 1 1 1 2 1 1 0 0 0 0 0 0 0 0 0 0 1 2 3 3 3 3 5 6 5 4 4
2 3 5 6 7 7 4 1 2 4 6 6 4 3 1 1 1 1 2 3 3 2 1 1 0 0 0 0 0 0 0 0 2 3 3 3 3 4 4 4 4 3 2
3 5 7 8 9 8 4 2 2 4 6 7 6 3 1 0 0 1 2 3 3 3 3 2 1 0 0 0 0 0 0 0 1 2 2 3 3 4 3 3 2 1 1
6 7 10 10 10 9 7 5 5 6 6 6 6 4 2 0 1 2 3 4 3 3 3 3 2 1 0 0 0 0 0 0 1 1 1 2 3 3 3 3 2 1 1
9 11 15 15 13 11 10 9 9 7 7 6 6 4 2 1 1 4 5 4 3 3 3 3 3 2 1 0 0 0 0 0 0 0 0 1 2 3 3 3 3 2 2
10 13 16 17 16 16 15 14 11 10 10 9 8 7 5 3 4 5 5 5 3 2 1 2 2 2 1 0 0 0 1 1 0 0 0 0 1 2 3 3 3 4 4
7 10 14 15 17 19 20 18 15 13 13 12 12 11 8 6 6 5 4 4 4 2 1 1 1 1 0 0 0 0 1 1 0 0 0 0 0 1 2 2 3 5 6
6 9 13 17 17 19 21 21 19 15 15 15 14 12 9 7 6 3 2 3 3 3 3 2 1 0 0 0 0 0 0 1 1 0 0 0 0 0 1 3 5 6 8
5 9 15 18 17 17 20 22 20 18 18 16 14 11 8 6 5 3 1 2 2 3 4 3 3 1 0 0 0 0 0 1 1 1 0 0 0 0 2 5 7 7 8
Wind_Speed
4 6 8 5 5 5 5 6 7 7 7 7 8 9 9 9 10 10 10 11 11 10 10 10 10 11 11 10 10 9 9 8 8 9 9 9 8 8 8 9 9 8 11
7 8 9 6 5 6 6 7 7 7 7 7 8 9 9 9 9 10 10 10 10 10 10 10 10 10 10 9 9 9 9 9 8 9 9 9 8 8 8 7 5 7 10
8 8 9 7 6 6 7 7 7 7 7 7 8 8 8 8 9 9 9 9 9 9 9 10 9 9 9 9 9 9 8 9 9 8 8 7 8 8 8 8 7 8 9
8 8 8 8 7 7 7 7 7 7 7 7 8 8 8 7 8 8 8 8 8 9 9 9 9 8 8 8 8 8 8 8 8 8 7 5 7 10 8 8 8 8 9
8 8 10 8 7 7 7 7 7 7 7 7 7 7 7 7 7 7 7 7 7 8 8 8 8 7 7 7 7 7 7 7 8 8 5 5 5 10 9 8 8 8 8
8 8 11 7 7 7 7 7 7 6 6 6 6 6 6 6 6 7 7 7 7 7 7 7 7 7 7 7 7 6 6 7 9 6 4 4 6 10 9 8 8 8 8
7 7 10 8 7 6 6 6 6 6 6 6 5 5 5 5 5 6 7 6 6 6 7 6 6 6 6 6 6 6 6 6 6 4 5 5 5 9 8 8 7 8 8
7 7 9 9 7 6 6 6 6 6 5 5 5 4 4 4 4 5 5 5 5 5 6 6 6 6 5 5 5 5 5 7 6 4 4 4 8 8 8 7 7 7 8
6 6 7 8 8 7 6 5 5 5 5 5 4 4 4 4 4 4 4 4 4 5 5 5 6 5 5 5 5 5 6 7 7 4 5 4 9 8 7 7 8 8 8
5 5 5 5 6 6 7 6 4 4 4 4 4 3 3 4 5 5 6 5 4 5 5 6 6 6 5 5 5 6 7 8 7 5 3 5 9 8 8 7 7 8 7
5 4 4 4 5 4 5 6 5 5 4 3 4 4 2 2 3 4 4 4 3 4 5 5 6 6 7 8 7 7 8 5 4 3 3 7 8 8 8 8 7 7 8
6 5 4 4 4 4 3 4 3 3 3 2 2 2 1 1 1 2 6 4 4 4 5 5 6 9 9 5 7 9 4 5 4 3 4 7 7 7 8 7 7 7 7
6 5 4 4 3 3 2 2 2 1 2 2 2 1 1 1 1 1 2 4 4 5 4 5 6 4 4 2 3 4 4 3 2 2 5 8 6 6 7 7 8 8 8
6 5 4 4 3 2 1 2 2 1 1 1 3 1 1 1 0 1 0 1 1 1 1 1 1 2 3 3 4 3 3 2 2 2 5 7 5 5 6 6 7 7 7
5 5 5 4 4 3 2 1 2 1 1 2 2 2 0 0 1 1 1 1 1 1 1 1 1 2 2 3 3 3 3 3 2 2 4 7 6 5 5 5 6 7 7
5 5 5 5 5 4 3 2 1 1 1 1 2 2 1 1 1 1 1 1 1 1 2 1 2 2 1 1 2 2 2 3 2 2 2 6 7 5 4 4 4 4 5
5 5 5 6 5 5 3 3 2 1 1 1 2 2 1 1 1 1 1 1 2 1 2 1 2 2 1 1 2 2 2 2 2 2 2 2 5 6 5 4 3 3 4
5 5 5 4 5 5 3 2 1 1 1 1 1 2 1 2 1 1 1 2 1 1 1 1 1 1 1 0 1 1 1 2 3 3 3 3 2 3 5 5 3 3 3
5 5 6 5 5 5 4 3 2 2 1 1 1 1 1 1 1 0 1 2 0 1 1 1 2 1 0 0 1 2 1 2 2 3 3 3 2 2 2 5 5 4 3
6 6 6 6 6 5 4 3 3 2 2 1 1 1 0 0 1 1 1 1 1 1 1 2 1 1 1 1 1 1 1 2 2 2 3 3 2 3 2 3 4 5 5
6 7 7 6 6 5 4 4 3 3 2 2 2 2 1 0 0 0 1 2 0 1 1 1 0 1 0 1 1 1 2 2 2 2 1 2 3 3 3 3 2 2 4
8 8 8 8 7 6 4 3 2 2 2 2 2 2 1 1 1 1 0 0 0 1 0 0 1 1 0 0 2 2 2 3 3 2 2 2 2 2 3 3 3 2 2
8 8 7 7 7 7 6 4 3 3 3 3 3 3 2 1 1 0 0 1 1 1 1 0 1 1 1 1 1 3 2 1 1 3 2 2 2 2 2 2 3 3 3
8 8 8 7 7 7 7 6 5 4 3 3 2 2 2 2 1 1 0 1 1 1 1 1 0 1 2 1 1 1 2 3 2 1 2 3 3 2 1 2 2 2 3
8 8 8 7 7 7 7 7 6 5 4 3 3 3 2 2 1 1 1 0 1 1 1 2 1 2 1 2 1 1 1 1 3 3 1 1 2 2 1 1 1 1 2
7 7 7 7 7 7 7 7 7 6 4 3 3 3 3 2 2 1 1 1 1 1 0 1 1 1 2 2 3 2 1 2 2 2 2 2 2 1 1 0 1 1 1
Wind_Direction
124 121 121 117 102 89 88 104 106 105 110 115 123 129 130 135 140 140 142 141 139 139 139 138 137 137 137 139 140 140 139 140 138 135 132 133 135 138 141 146 159 144 124
122 121 124 118 104 91 89 100 104 103 110 114 121 127 129 132 136 138 139 141 142 142 141 139 139 138 139 141 144 144 146 147 147 145 145 147 145 144 144 149 164 120 135
122 124 127 115 104 93 89 96 104 103 106 112 117 125 127 130 135 137 138 140 143 145 144 143 143 142 142 144 147 148 152 153 152 155 170 163 146 148 152 151 145 137 144
123 125 117 114 107 100 94 96 100 102 103 109 113 120 124 129 135 139 140 143 144 145 146 146 146 147 147 147 150 152 155 156 160 178 183 155 146 144 157 158 155 152 151
121 119 111 118 111 105 100 98 98 101 103 105 112 115 122 129 137 140 141 144 145 148 150 148 149 150 147 148 149 151 154 160 176 202 166 148 142 141 159 161 159 158 158
124 122 114 122 115 108 104 100 97 100 103 107 113 115 119 125 136 141 142 149 152 154 154 152 149 149 148 147 149 152 159 176 201 187 161 164 145 144 161 166 166 163 165
125 119 119 124 122 115 108 106 103 97 99 105 110 114 117 120 133 142 142 146 151 154 157 157 156 153 152 152 157 164 174 199 222 182 167 167 136 143 162 169 172 172 171
124 121 121 130 129 126 118 109 101 102 100 103 103 102 110 116 125 137 141 145 150 155 160 162 161 159 162 168 170 177 191 221 207 191 183 164 129 152 170 174 179 180 179
123 124 124 134 137 137 126 113 110 106 101 101 105 100 106 115 127 139 144 149 156 164 168 169 167 169 175 180 185 201 213 231 237 193 187 164 137 163 178 184 187 187 188
129 129 130 133 131 141 139 130 121 113 109 108 106 108 123 155 159 162 168 156 160 171 176 179 182 181 184 188 193 208 221 228 227 199 191 147 149 172 186 193 195 192 194
137 140 137 130 133 134 128 127 146 143 140 164 151 139 185 175 139 160 119 132 158 173 181 191 195 195 196 193 200 211 220 223 209 204 177 133 157 180 192 198 197 201 201
149 152 140 144 139 138 132 132 150 152 138 161 116 141 165 124 99 111 119 147 167 173 182 187 201 207 217 199 191 209 212 213 214 191 145 139 161 183 193 197 200 205 207
153 152 152 155 151 153 144 137 124 125 125 136 97 90 97 135 139 141 146 161 172 183 184 174 201 210 206 204 212 199 206 216 209 185 135 141 163 183 192 197 199 205 208
158 160 161 156 151 151 139 131 144 140 125 111 111 87 101 92 28 80 106 110 152 142 155 196 199 190 213 211 212 217 207 210 195 174 125 139 158 180 194 197 197 202 205
163 166 162 158 151 157 164 207 144 129 107 108 97 105 66 100 74 88 86 68 75 106 152 171 189 174 193 201 202 200 209 195 208 191 139 148 162 177 194 203 208 210 212
172 167 158 164 159 166 172 182 164 150 125 80 91 78 49 40 45 53 105 91 72 59 55 64 99 119 125 142 168 174 197 181 181 200 179 159 170 178 189 198 210 213 214
178 172 168 167 162 168 180 187 169 157 143 106 92 91 53 49 64 3 60 83 68 67 80 86 91 101 114 129 145 166 184 183 174 185 202 185 169 170 176 185 191 199 211
181 175 178 176 164 163 170 183 168 159 120 105 90 92 76 47 49 10 39 59 54 62 80 82 57 83 91 117 134 176 171 170 181 189 193 195 198 178 170 177 186 196 201
184 183 180 184 174 172 170 175 177 159 140 141 105 80 90 81 99 148 66 49 40 56 49 28 69 356 62 154 195 176 183 174 183 186 185 194 185 198 179 158 180 189 203
184 187 188 186 182 182 180 181 185 166 173 166 134 97 86 108 98 300 118 71 33 67 47 52 53 28 319 266 258 158 197 178 188 188 202 178 177 187 194 176 184 186 192
187 193 195 197 186 190 191 195 186 178 184 172 162 132 154 268 145 294 15 97 11 72 13 6 24 150 277 306 250 195 179 188 185 189 214 200 177 181 180 183 212 208 182
192 196 196 198 191 194 188 195 195 195 190 177 167 144 169 186 232 185 267 208 96 130 138 329 310 320 336 259 282 262 208 182 187 175 186 188 181 179 182 180 197 210 236
196 196 199 198 191 193 188 187 183 184 195 177 180 167 166 183 195 286 195 296 293 276 102 313 293 294 303 256 296 298 293 286 143 151 173 169 174 193 207 197 204 214 224
197 192 194 195 193 192 193 195 194 195 201 193 188 160 164 175 190 202 229 272 289 321 14 276 51 293 281 275 214 292 320 343 293 200 176 160 167 190 237 242 216 202 213
194 189 183 183 188 192 197 196 205 213 211 195 182 159 188 168 195 214 199 207 231 288 1 333 350 308 286 294 296 271 259 242 257 270 255 196 191 183 207 236 246 225 200
193 190 184 179 186 190 197 201 206 211 209 198 187 175 189 179 184 186 196 214 229 271 293 283 292 271 306 315 304 298 289 282 287 279 267 244 233 196 188 245 236 223 196